Regional Weather Roundup
Issued by NWS Portland, ME

Home | Current Version | Previous Version | Text Only | Print | Product List | Glossary On
Versions: 1 2 3 4 5 6 7 8 9 10 11 12 13 14 15 16 17 18 19 20 21 22 23 24 25 26 27 28 29 30 31 32 33 34 35 36 37 38 39 40 41 42 43 44 45 46 47 48 49 50
000
ASUS41 KGYX 230710
RWRGYX
WEATHER ROUNDUP FOR MAINE AND NEW HAMPSHIRE
NATIONAL WEATHER SERVICE GRAY ME
300 AM EDT TUE SEP 23 2014

MEZ002-005-006-010-012-015-018-020-021-024-026-027-029-230800-
MAINE

CITY           SKY/WX    TMP DP  RH WIND       PRES   REMARKS
PORTLAND       CLEAR     44  36  73 NE3       30.09S
SANFORD        CLEAR     36  30  80 W3        30.10S
BAR HARBOR     CLEAR     46  41  81 W3        30.03R
WISCASSET      CLEAR     42  38  85 CALM      30.09R
ROCKLAND       CLEAR     43  37  81 CALM      30.05S
FRYEBURG       CLEAR     49  34  56 NW10G20   30.09S
LEWISTONAUBURN CLEAR     45  34  65 W5        30.07S
AUGUSTA        CLEAR     46  37  71 W7        30.06R
WATERVILLE     CLEAR     43  36  75 CALM      30.00R
BANGOR         CLEAR     44  37  76 W5        30.03R
GREENVILLE       N/A     42  36  79 NW8       29.97R
MILLINOCKET    MOCLDY    47  37  68 W9        29.99R
HOULTON        PTCLDY    45  36  70 W14G22    29.92R
PRESQUE ISLE   MOCLDY    45  36  70 SW5       29.89R
FRENCHVILLE    CLOUDY    43  37  79 W18G25    29.86R
CARIBOU        MOCLDY    44  38  79 W9        29.88R
$$

NHZ002-005-008-009-011-012-014-230800-
NEW HAMPSHIRE

CITY           SKY/WX    TMP DP  RH WIND       PRES   REMARKS
PORTSMOUTH     CLEAR     47  39  75 SW5       30.10R
ROCHESTER      CLEAR     47  35  63 NW5       30.09S
NASHUA         CLEAR     42  40  93 CALM      30.14R
MANCHESTER     CLEAR     46  37  71 CALM      30.11R
CONCORD        CLEAR     43  37  79 CALM      30.11S
LACONIA        CLEAR     48  34  57 W3        30.10S
PLYMOUTH       FAIR      45  40  83 W5        30.13S
BERLIN         CLOUDY    46  37  71 NW5       30.09S
WHITEFIELD     MOCLDY    45  36  70 SW5       30.12R
JAFFREY        CLEAR     44  36  73 VRB3      30.12S
LEBANON        CLEAR     42  36  79 CALM      30.15R
MT WASHINGTON  FOG       23  23 100 NW64        N/A  VSB 1/16WCI   0
$$

VTZ005-007-008-230800-
VERMONT

CITY           SKY/WX    TMP DP  RH WIND       PRES   REMARKS
ST JOHNSBURY     N/A     46  38  73 MISG      30.11S
MONTPELIER     CLOUDY    45  36  70 CALM      30.16S
BURLINGTON     CLOUDY    52  38  58 W8        30.15R
$$

MAZ007-012-024-CTZ003-RIZ002-NYZ038-NYZ072-230800-
SOUTHERN NEW ENGLAND AND NY

CITY           SKY/WX    TMP DP  RH WIND       PRES   REMARKS
BOSTON         CLEAR     52  38  58 W6        30.14R
WORCESTER      CLEAR     45  37  73 NW5       30.14R
NANTUCKET      CLEAR     56  40  55 N16       30.12R
PROVIDENCE     CLEAR     46  40  79 W6        30.16R
HARTFORD       CLEAR     50  40  68 SW3       30.16R
ALBANY         PTCLDY    46  41  82 NE3       30.20S
NEW YORK CITY  CLEAR     55  40  56 NW15      30.19S
$$

ANZ081-ANZ082-ANZ150-NHZ014-MEZ023>029-230800-
COASTAL MARINE OBSERVATIONS

STATION/POSITION TIME  TEMP    WIND        PRES    WAVE
                       AIR SEA DIR/SP/G            HT/PER
                 (UTC) (F)     (DEG/KT/KT) (MB)    (FT/S)
MATINICUS ROCK   0700          300/ 21/ 23 1017.4R
PORTLAND WX BUOY 0650   52 57  290/ 10/ 12 1018.8R   3/11
WELLS            0600   46 51  290/  3/  3 1018.2R
ISLE OF SHOALS   0700   51     270/ 14/ 16 1019.1R
JEFFREYS LEDGE   0621      60                N/A     5/11
CASHES LEDGE BUO 0650   54 57              1018.0R   7/11
$$

.............KEY..............
   WCI - WIND CHILL
   TC  - TEMPERATURE IN CELSIUS
   VSB - VISIBILITY IN MILES
   HX  - HEAT INDEX
   FAIR- INDICATES FEW OR NO CLOUDS BELOW 12,000 FT, WITH NO
         SIGNIFICANT WEATHER AND/OR OBSTRUCTIONS TO VISIBILITY.




USA.gov is the U.S. government's official web portal to all federal, state and local government web resources and services.